GW4479 Weather Reports


time (UTC)temp
C
wind
direction
speed
KPH
gust
KPH
rain 1hr
cm
rain 24hr
cm
rain mn
cm
humidity
%
barometer
mb
20260507091556 14 13 0.0 3.2 0.00 0.00 0.00 88 1016.6
20260507090051 14 0 0.0 0.0 0.00 0.00 0.00 87 1016.8
20260507084553 15 13 0.0 3.2 0.00 0.00 0.00 86 1016.9
20260507083051 15 5 0.0 3.2 0.00 0.00 0.00 86 1017.1
20260507081553 15 0 0.0 3.2 0.00 0.00 0.00 86 1017.3
20260507080100 15 42 0.0 3.2 0.00 0.00 0.00 87 1017.3
20260507074606 15 0 0.0 1.6 0.00 0.00 0.00 87 1017.4
20260507073052 15 0 0.0 1.6 0.00 0.00 0.00 87 1017.3
20260507071554 15 0 0.0 3.2 0.00 0.00 0.00 87 1017.3
20260507070107 16 0 0.0 4.8 0.00 0.00 0.00 87 1017.4
20260507064604 16 0 1.6 4.8 0.00 0.00 0.00 87 1017.5
20260507063100 16 282 3.2 4.8 0.00 0.00 0.00 87 1017.6
20260507061555 16 279 1.6 6.4 0.00 0.00 0.00 86 1017.6
20260507060054 16 268 3.2 6.4 0.00 0.00 0.00 85 1017.7
20260507054555 16 252 0.0 4.8 0.00 0.00 0.00 85 1017.5
20260507053051 16 298 0.0 3.2 0.00 0.00 0.00 84 1017.4
20260507051555 16 286 1.6 3.2 0.00 0.00 0.00 83 1017.7
20260507050053 16 0 0.0 4.8 0.00 0.00 0.00 80 1017.6
20260507044606 16 0 1.6 4.8 0.00 0.00 0.00 79 1017.5
20260507043109 16 288 1.6 6.4 0.00 0.00 0.00 79 1017.3
20260507041559 16 290 1.6 6.4 0.00 0.00 0.00 81 1017.6
20260507040110 17 310 1.6 9.7 0.00 0.00 0.00 81 1017.4
20260507034618 17 292 4.8 12.9 0.00 0.00 0.00 81 1017.1
20260507033103 17 264 6.4 11.3 0.00 0.00 0.00 82 1016.9
20260507031618 17 273 6.4 14.5 0.00 0.00 0.00 82 1016.9
20260507030057 17 291 6.4 14.5 0.00 0.00 0.00 81 1016.7
20260507024556 17 274 8.0 14.5 0.00 0.00 0.00 81 1016.5
20260507023051 17 317 9.7 17.7 0.00 0.00 0.00 79 1016.4
20260507021556 18 306 12.9 20.9 0.00 0.00 0.00 76 1016.3
20260507020053 18 274 9.7 17.7 0.00 0.00 0.00 72 1016.3
20260507014555 18 295 12.9 19.3 0.00 0.00 0.00 70 1016.3
20260507013108 18 280 11.3 22.5 0.00 0.00 0.00 69 1016.2
20260507011558 19 263 11.3 19.3 0.00 0.00 0.00 67 1016.3
20260507010104 19 271 14.5 22.5 0.00 0.00 0.00 68 1016.2
20260507004552 19 265 14.5 24.1 0.00 0.00 0.00 68 1016.2
20260507003056 20 300 12.9 24.1 0.00 0.00 0.00 66 1016.1
20260507001555 20 268 11.3 20.9 0.00 0.00 0.00 69 1015.9
20260507000051 20 311 11.3 25.7 0.00 0.00 0.00 67 1016.0
20260506234555 20 340 11.3 24.1 0.00 0.00 0.00 68 1015.9
20260506233103 20 273 16.1 25.7 0.00 0.00 0.00 66 1016.0
20260506231551 20 269 14.5 25.7 0.00 0.00 0.00 66 1016.0
20260506230103 19 294 17.7 29.0 0.00 0.00 0.00 68 1016.1
20260506224550 20 281 14.5 25.7 0.00 0.00 0.00 67 1016.1
20260506223053 20 309 14.5 27.4 0.00 0.00 0.00 68 1016.2
20260506221557 20 232 11.3 25.7 0.00 0.00 0.00 68 1016.3
20260506220050 20 258 11.3 27.4 0.00 0.00 0.00 68 1016.6
20260506214600 19 282 14.5 29.0 0.00 0.00 0.00 68 1016.7
20260506213050 20 244 16.1 27.4 0.00 0.00 0.00 67 1016.8
20260506211607 19 269 14.5 25.7 0.00 0.00 0.00 68 1016.9
20260506210055 19 281 16.1 30.6 0.00 0.00 0.00 68 1016.9
20260506204556 19 285 17.7 29.0 0.00 0.00 0.00 68 1017.0
20260506203058 20 250 14.5 27.4 0.00 0.00 0.00 67 1017.2
20260506201551 19 263 14.5 27.4 0.00 0.00 0.00 66 1017.2
20260506200051 20 275 14.5 30.6 0.00 0.00 0.00 66 1017.2
20260506194554 19 254 16.1 25.7 0.00 0.00 0.00 66 1017.5
20260506193049 19 253 14.5 25.7 0.00 0.00 0.00 66 1017.6
20260506191549 19 246 16.1 25.7 0.00 0.00 0.00 66 1017.5
20260506190052 19 196 12.9 25.7 0.00 0.00 0.00 66 1017.6
20260506184551 19 256 12.9 22.5 0.00 0.00 0.00 66 1017.8
20260506183053 19 248 12.9 20.9 0.00 0.00 0.00 67 1018.0
20260506181553 18 253 11.3 25.7 0.00 0.00 0.00 68 1018.1
20260506180055 18 248 11.3 22.5 0.00 0.00 0.00 66 1018.3
20260506174554 18 289 12.9 22.5 0.00 0.00 0.00 66 1018.3
20260506173104 19 290 11.3 17.7 0.00 0.00 0.00 62 1018.3
20260506171557 19 298 8.0 17.7 0.00 0.00 0.00 62 1018.4
20260506170059 19 249 3.2 16.1 0.00 0.00 0.00 61 1018.3
20260506164612 18 13 8.0 14.5 0.00 0.00 0.00 63 1018.2
20260506163059 17 294 4.8 14.5 0.00 0.00 0.00 66 1018.4
20260506161553 18 352 4.8 12.9 0.00 0.00 0.00 65 1018.5
20260506160107 17 5 3.2 9.7 0.00 0.00 0.00 67 1018.4
20260506154554 17 338 3.2 9.7 0.00 0.00 0.00 68 1018.3
20260506153055 17 347 3.2 9.7 0.00 0.00 0.00 69 1018.4
20260506151555 17 15 1.6 6.4 0.00 0.00 0.00 70 1018.6
20260506150052 17 316 1.6 6.4 0.00 0.00 0.00 70 1018.5
20260506144555 16 0 0.0 4.8 0.00 0.03 0.00 74 1018.5
20260506143056 15 82 1.6 4.8 0.00 0.03 0.00 76 1018.5
20260506141611 13 67 3.2 6.4 0.00 0.03 0.00 79 1018.4
20260506140050 13 80 3.2 9.7 0.00 0.03 0.00 81 1018.4
20260506134555 12 62 1.6 8.0 0.00 0.23 0.00 81 1018.2
20260506133104 12 45 0.0 6.4 0.00 0.23 0.00 82 1018.0
20260506131555 12 73 3.2 8.0 0.00 0.23 0.00 82 1017.9
20260506130051 12 66 3.2 8.0 0.00 0.23 0.00 81 1017.7
20260506124553 12 55 3.2 6.4 0.00 0.23 0.00 81 1017.6
20260506123051 13 15 0.0 3.2 0.00 0.23 0.00 81 1017.6
20260506121601 13 0 1.6 4.8 0.00 0.23 0.00 81 1017.5
20260506120118 12 0 0.0 1.6 0.00 0.23 0.00 82 1017.4
20260506114550 13 17 0.0 1.6 0.00 0.30 0.00 82 1017.5
20260506113106 13 0 0.0 1.6 0.00 0.30 0.00 82 1017.6
20260506111601 13 0 0.0 1.6 0.00 0.30 0.00 82 1017.4
20260506110054 13 0 0.0 4.8 0.00 0.30 0.00 81 1017.5
20260506104554 13 117 1.6 6.4 0.00 0.30 0.00 82 1017.4
20260506103053 12 0 0.0 1.6 0.00 0.30 0.00 83 1017.4
20260506101554 12 0 0.0 3.2 0.00 0.30 0.00 83 1017.4
20260506100058 12 87 0.0 4.8 0.00 0.30 0.00 83 1017.3
20260506094553 13 346 0.0 6.4 0.00 0.30 0.00 82 1017.3
20260506093101 13 85 1.6 3.2 0.00 0.30 0.00 82 1017.1